カタログに戻る

ALOUETTE 1

S-27

運用中科学PO
NORAD 424·PAYLOAD·🇨🇦 Canada

打ち上げ Sep 29, 1962 から Vandenberg Space Force Base

Loading…

次のパス (今後24時間)

TLE

最新Source: Space-Track

元期: Sep 14, 2026, 10:58 UTC

1 00424U 62049A   26257.45723586  .00000081  00000-0  82045-4 0  9995
2 00424  80.4694 168.0558 0023491   8.6474 351.5072 13.69602533193334

AllMySatでALOUETTE 1をリアルタイム追跡

Download on the App Store